Stations météo

réclame
Mon MeteoGroup
Edinburgh/Gogarbank, Grande-Bretagne (3166): Température de l'air & dewpoint: 18.01.2018 09:00:00 - 24.01.2018 09:00:00 (GMT)Edinburgh/Gogarbank, Grande-Bretagne (3166): Vitesse du vent & gusts: 18.01.2018 09:00:00 - 24.01.2018 09:00:00 (GMT)Edinburgh/Gogarbank, Grande-Bretagne (3166): Direction du vent: 18.01.2018 09:00:00 - 24.01.2018 09:00:00 (GMT)Edinburgh/Gogarbank, Grande-Bretagne (3166): reduced air pressure: 18.01.2018 09:00:00 - 24.01.2018 09:00:00 (GMT)Edinburgh/Gogarbank, Grande-Bretagne (3166): visibility: 18.01.2018 09:00:00 - 24.01.2018 09:00:00 (GMT)Edinburgh/Gogarbank, Grande-Bretagne (3166): Ensoleillement: 18.01.2018 09:00:00 - 24.01.2018 09:00:00 (GMT)Edinburgh/Gogarbank, Grande-Bretagne (3166): Quantités de précipitations: 18.01.2018 09:00:00 - 24.01.2018 09:00:00 (GMT)
Date & Time tt [°C] td [°C] ff [km/h] ff [knt] fx [km/h] fx [knt] dd ppp [hPa] vv [km] sd [min] rr [mm]
24.01.2018 09:00:00 6,7 2,2 37 20 83 45 SW 983,9 24 0 0,0
24.01.2018 08:00:00 6,4 3,4 44 24 76 41 WSW 983,1 27 0 0,8
24.01.2018 07:00:00 8,5 4,2 37 20 74 40 SW 982,7 30 0 0,4
24.01.2018 06:00:00 8,9 6,4 31 17 63 34 SW 982,4 24 0 4,2
24.01.2018 05:00:00 10,2 8,4 39 21 59 32 SW 983,6 3,8 0 2,0
24.01.2018 04:00:00 9,6 7,7 26 14 54 29 SSW 985,6 10 0 3,0
24.01.2018 03:00:00 8,8 7,1 24 13 55 30 S 988,4 8 0 2,2
24.01.2018 02:00:00 7,7 6,1 16 9 - - S 991,2 9 0 1,4
24.01.2018 01:00:00 7,3 5,0 11 6 - - S 995,8 12 0 1,0
24.01.2018 00:00:00 7,3 4,7 16 9 - - SSW 998,6 12 - 0,2
23.01.2018 23:00:00 7,3 3,1 22 12 - - SSW 999,3 23 0 0,0
23.01.2018 22:00:00 6,5 3,3 16 9 46 25 SW 999,8 24 0 0,0
23.01.2018 21:00:00 5,8 2,9 22 12 - - SW 1000,0 29 0 0,0
23.01.2018 20:00:00 5,9 3,5 24 13 - - SW 1000,0 29 0 0,0
23.01.2018 19:00:00 6,2 4,0 26 14 - - SW 999,5 30 0 0,0
23.01.2018 18:00:00 6,5 4,7 24 13 54 29 WSW 998,4 30 0 2,8
23.01.2018 17:00:00 6,9 5,1 18 10 55 30 SW 997,9 29 0 1,8
23.01.2018 16:00:00 8,4 7,0 22 12 - - SW 997,0 5 0 2,4
23.01.2018 15:00:00 8,7 7,3 22 12 55 30 WSW 997,6 24 0 0,6
23.01.2018 14:00:00 9,4 6,5 31 17 57 31 W 997,4 9 0 0,2
23.01.2018 13:00:00 10,9 8,4 34 18 61 33 SW 997,0 29 0 0,0
23.01.2018 12:00:00 10,5 8,5 35 19 61 33 SW 997,0 65 0 0,4
23.01.2018 11:00:00 10,6 8,1 34 18 61 33 SSW 997,0 50 0 0,0
23.01.2018 10:00:00 10,7 8,1 31 17 55 30 SSW 997,0 60 0 0,4
23.01.2018 09:00:00 9,1 7,4 31 17 61 33 SSW 998,8 20 0 1,2
23.01.2018 08:00:00 8,8 6,2 16 9 - - S 999,0 65 0 0,0
23.01.2018 07:00:00 8,5 5,7 16 9 - - S 1000,1 65 0 0,0
23.01.2018 06:00:00 8,4 6,0 16 9 - - S 1001,6 40 0 0,0
23.01.2018 05:00:00 8,2 5,5 13 7 - - SW 1002,8 55 0 0,0
23.01.2018 04:00:00 7,9 5,0 13 7 - - S 1003,5 55 0 0,0
23.01.2018 03:00:00 8,2 4,5 16 9 - - SSW 1004,8 55 0 0,0
23.01.2018 02:00:00 7,4 4,5 29 16 - - SSW 1006,2 45 0 0,0
23.01.2018 01:00:00 7,0 4,5 24 13 - - SSW 1007,4 45 0 0,0
23.01.2018 00:00:00 6,9 4,2 16 9 - - S 1007,9 40 - 0,0
22.01.2018 23:00:00 6,6 3,2 13 7 - - S 1008,6 45 0 0,0
22.01.2018 22:00:00 6,7 3,4 24 13 - - SSW 1008,6 50 0 0,0
22.01.2018 21:00:00 6,5 4,0 18 10 - - SW 1008,9 30 0 0,0
22.01.2018 20:00:00 6,5 4,1 24 13 - - SW 1009,0 23 0 0,0
22.01.2018 19:00:00 6,6 4,4 16 9 - - WSW 1008,7 18 0 0,0
22.01.2018 18:00:00 6,6 4,2 15 8 - - SW 1008,2 19 0 0,0
22.01.2018 17:00:00 7,1 4,3 22 12 - - WSW 1007,3 21 0 0,0
22.01.2018 16:00:00 6,7 4,7 24 13 - - WSW 1006,5 14 0 0,2
22.01.2018 15:00:00 6,8 4,7 22 12 - - WSW 1005,7 14 6 0,0
22.01.2018 14:00:00 7,0 4,8 28 15 48 26 WSW 1005,3 22 18 0,0
22.01.2018 13:00:00 6,6 4,4 26 14 - - WSW 1004,6 23 0 0,0
22.01.2018 12:00:00 6,5 4,1 24 13 - - WSW 1004,2 27 0 0,0
22.01.2018 11:00:00 6,0 3,5 24 13 - - SW 1003,5 20 0 0,0
22.01.2018 10:00:00 5,7 3,8 18 10 - - SW 1002,9 18 0 0,0
22.01.2018 09:00:00 5,3 3,4 21 11 - - SW 1002,1 22 0 0,0
22.01.2018 08:00:00 5,2 3,0 21 11 - - SW 1001,6 22 0 0,0
22.01.2018 07:00:00 5,4 3,3 24 13 - - SW 1000,8 25 0 0,0
22.01.2018 06:00:00 4,9 2,8 21 11 - - WSW 1000,4 28 0 0,0
22.01.2018 05:00:00 5,1 3,0 18 10 - - SW 1000,2 25 0 0,0
22.01.2018 04:00:00 5,1 3,0 22 12 - - SW 999,9 26 0 0,0
22.01.2018 03:00:00 5,3 3,1 21 11 - - SW 999,4 25 0 0,0
22.01.2018 02:00:00 4,8 3,5 22 12 - - SW 998,9 27 0 0,0
22.01.2018 01:00:00 4,5 3,7 16 9 - - SW 998,9 13 0 0,2
22.01.2018 00:00:00 4,9 2,7 21 11 - - WSW 998,4 27 - 0,0
21.01.2018 23:00:00 4,7 3,5 24 13 - - WSW 998,5 24 0 0,0
21.01.2018 22:00:00 3,0 2,8 15 8 - - W 998,4 14 0 0,0
21.01.2018 21:00:00 2,4 2,4 13 7 - - W 998,1 23 0 0,2
21.01.2018 20:00:00 0,6 0,5 4 2 - - WNW 998,4 1,7 0 0,0
21.01.2018 19:00:00 0,8 0,7 5 3 - - W 998,3 1,6 0 0,2
21.01.2018 18:00:00 0,8 0,4 2 1 - - NW 998,7 1,5 0 0,4
21.01.2018 17:00:00 2,1 0,6 8 4 - - SE 999,6 5 0 0,0
21.01.2018 16:00:00 1,8 -0,1 13 7 - - ESE 1000,4 45 0 0,4
21.01.2018 15:00:00 1,8 0,5 11 6 - - SE 1002,2 45 0 0,0
21.01.2018 14:00:00 0,5 0,0 8 4 - - NE 1004,2 1,5 0 0,0
21.01.2018 13:00:00 1,6 -1,8 9 5 - - ESE 1006,2 6 0 0,0
21.01.2018 12:00:00 1,6 -2,2 2 1 - - E 1006,7 65 0 0,0
21.01.2018 11:00:00 1,4 -2,4 8 4 - - E 1007,9 65 0 0,0
21.01.2018 10:00:00 -1,1 -1,8 4 2 - - E 1009,7 16 0 0,0
21.01.2018 09:00:00 -1,9 -2,6 4 2 - - NW 1009,6 12 0 0,0
21.01.2018 08:00:00 -2,6 -3,3 4 2 - - WNW 1009,8 13 0 0,0
21.01.2018 07:00:00 -2,6 -3,3 4 2 - - W 1010,3 24 0 0,0
21.01.2018 06:00:00 -2,8 -3,4 2 1 - - E 1011,1 15 0 0,0
21.01.2018 05:00:00 -3,0 -3,6 2 1 - - ESE 1011,5 20 0 0,0
21.01.2018 04:00:00 -3,4 -4,0 2 1 - - N 1011,7 14 0 0,0
21.01.2018 03:00:00 -3,7 -4,8 2 1 - - SW 1011,6 24 0 0,0
21.01.2018 02:00:00 -3,8 -4,7 4 2 - - WSW 1011,6 18 0 0,0
21.01.2018 01:00:00 -3,5 -4,6 4 2 - - W 1011,3 24 0 0,0
21.01.2018 00:00:00 -2,8 -4,5 4 2 - - SW 1010,6 40 - 0,0
20.01.2018 23:00:00 -2,8 -4,3 4 2 - - WSW 1010,2 35 0 0,0
20.01.2018 22:00:00 -2,2 -3,9 8 4 - - SW 1009,2 40 0 0,0
20.01.2018 21:00:00 -2,0 -3,4 9 5 - - WSW 1008,5 29 0 0,0
20.01.2018 20:00:00 -1,8 -3,2 8 4 - - SW 1007,8 26 0 0,0
20.01.2018 19:00:00 -1,6 -2,5 8 4 - - SW 1006,8 20 0 0,0
20.01.2018 18:00:00 -1,3 -2,0 5 3 - - SW 1005,4 15 0 0,0
20.01.2018 17:00:00 -0,1 -1,4 5 3 - - WSW 1004,1 29 6 0,0
20.01.2018 16:00:00 2,0 -1,0 5 3 - - NW 1003,1 28 60 0,0
20.01.2018 15:00:00 3,0 -0,4 8 4 - - W 1001,7 26 54 0,0
20.01.2018 14:00:00 3,6 -0,1 4 2 - - W 1000,7 27 60 0,0
20.01.2018 13:00:00 3,0 -0,3 4 2 - - W 999,8 26 54 0,0
20.01.2018 12:00:00 1,6 -0,5 5 3 - - N 999,4 23 60 0,0
20.01.2018 11:00:00 0,8 -0,6 4 2 - - NW 999,2 35 18 0,0
20.01.2018 10:00:00 -0,5 -1,0 8 4 - - WSW 999,1 28 0 0,0
20.01.2018 09:00:00 -0,8 -1,6 5 3 - - SW 998,7 35 0 0,0
20.01.2018 08:00:00 -0,3 -1,4 5 3 - - S 998,1 30 0 0,0
20.01.2018 07:00:00 0,7 -0,6 9 5 - - WSW 997,8 35 0 0,0
20.01.2018 06:00:00 0,8 -0,3 15 8 - - W 997,7 35 0 0,0
20.01.2018 05:00:00 1,0 -0,1 15 8 - - WSW 997,7 35 0 0,0
20.01.2018 04:00:00 1,3 0,2 13 7 - - SW 997,9 45 0 0,0
20.01.2018 03:00:00 1,6 0,6 22 12 - - WSW 997,8 45 0 0,0
20.01.2018 02:00:00 1,2 0,5 22 12 - - WSW 998,2 19 0 0,2
20.01.2018 01:00:00 0,8 0,4 16 9 - - SW 998,3 45 0 1,0
20.01.2018 00:00:00 2,0 0,4 18 10 - - SW 998,5 55 - 0,0
19.01.2018 23:00:00 1,4 0,0 16 9 - - SW 998,8 40 0 0,0
19.01.2018 22:00:00 1,0 -0,2 16 9 - - WSW 999,4 45 0 0,0
19.01.2018 21:00:00 1,0 -0,8 18 10 - - WSW 999,7 45 0 0,0
19.01.2018 20:00:00 1,0 -0,5 16 9 - - SW 999,9 40 0 0,0
19.01.2018 19:00:00 0,9 0,0 22 12 - - WSW 999,5 30 0 0,0
19.01.2018 18:00:00 0,8 0,2 15 8 - - WSW 999,0 45 0 0,0
19.01.2018 17:00:00 0,9 0,3 22 12 - - SW 999,0 11 0 0,6
19.01.2018 16:00:00 2,3 0,5 18 10 - - WSW 998,6 45 0 0,0
19.01.2018 15:00:00 1,7 -0,5 16 9 - - SW 998,5 50 24 0,0
19.01.2018 14:00:00 2,4 0,2 21 11 - - WSW 998,4 50 18 0,0
19.01.2018 13:00:00 2,5 0,3 21 11 - - SW 998,7 23 12 0,0
19.01.2018 12:00:00 2,9 0,5 21 11 - - WSW 999,0 40 30 0,0
19.01.2018 11:00:00 2,8 0,5 18 10 - - SW 999,0 45 12 0,0
19.01.2018 10:00:00 2,1 -0,3 22 12 - - WSW 999,0 40 18 0,2
19.01.2018 09:00:00 2,0 0,5 15 8 - - WSW 999,0 26 0 0,4
19.01.2018 08:00:00 1,0 0,5 13 7 - - SW 998,7 35 0 0,2
19.01.2018 07:00:00 0,9 0,1 28 15 - - WSW 999,1 1,5 0 0,2
19.01.2018 06:00:00 1,6 -0,4 21 11 - - WSW 999,0 60 0 0,0
19.01.2018 05:00:00 1,6 -0,5 18 10 - - WSW 998,8 55 0 0,0
19.01.2018 04:00:00 1,8 -0,2 21 11 - - WSW 998,9 55 0 0,0
19.01.2018 03:00:00 1,2 -0,4 21 11 - - SW 998,9 50 0 0,0
19.01.2018 02:00:00 1,6 0,0 22 12 - - WSW 998,8 50 0 0,0
19.01.2018 01:00:00 1,3 -0,3 18 10 - - WSW 999,2 50 0 0,0
19.01.2018 00:00:00 1,5 0,0 15 8 - - SW 999,0 50 - 0,0
18.01.2018 23:00:00 1,7 0,1 21 11 - - WSW 999,1 45 0 0,0
18.01.2018 22:00:00 1,2 -0,5 15 8 - - SW 998,9 40 0 0,0
18.01.2018 21:00:00 1,2 -0,5 15 8 - - SW 998,8 45 0 0,0
18.01.2018 20:00:00 1,9 0,0 18 10 - - WSW 998,3 45 0 0,0
18.01.2018 19:00:00 1,9 0,2 21 11 - - WSW 997,6 35 0 0,0
18.01.2018 18:00:00 2,1 0,5 16 9 - - WSW 997,1 35 0 0,0
18.01.2018 17:00:00 2,1 0,6 22 12 - - WSW 996,9 40 0 0,0
18.01.2018 16:00:00 1,9 0,6 21 11 - - WSW 996,3 40 0 0,0
18.01.2018 15:00:00 2,7 0,9 18 10 - - WSW 995,8 50 18 0,0
18.01.2018 14:00:00 3,0 1,4 18 10 - - WSW 995,2 50 0 0,0
18.01.2018 13:00:00 3,1 1,4 15 8 - - SW 995,3 35 0 0,0
18.01.2018 12:00:00 3,6 1,0 13 7 - - WSW 995,4 55 30 0,0
18.01.2018 11:00:00 3,5 0,7 16 9 - - WSW 994,7 14 60 0,0
18.01.2018 10:00:00 2,7 0,6 13 7 - - WSW 994,5 40 12 0,0
18.01.2018 09:00:00 1,9 0,5 11 6 - - SW 993,9 35 0 0,0

tt = Température de l'air
td = dewpoint
ff = Vitesse du vent
fx = gusts
dd = Direction du vent
ppp = reduced air pressure
vv = visibility
sd = Ensoleillement
rr = Quantités de précipitations

stations d'obs. à proximité